Location: Pilipovskiye Korichintsy
(49.1833°N, 27.4667°E)
Time: 22:06:11
(UTC+00:00)

Cosmos 1437 Rocket - Pass Details

Date: 14 July 2020
Orbit: 506 x 562 km, 81.2° (Epoch: 10 August)

Event Time Altitude Azimuth Distance (km) Brightness Sun altitude
Rises 00:30:07 0° 340° (NNW) 2,741 7.0 -13.2°
Reaches altitude 10° 00:32:28 10° 330° (NNW) 1,833 5.9 -13.0°
Maximum altitude 00:36:03 32° 267° (W) 952 3.7 -12.6°
Enters shadow 00:38:06 20° 218° (SW) 1,293 4.1 -12.5°
